Hourly Data Report for March 06, 2020

MIRAMICHI RCS
NEW BRUNSWICK
Current Station Operator: ECCC - MSC

47°00'34.000" N
65°27'54.000" W
33.00 m
8100989
71744
ACQ

Download Data

Hourly Data (March 2020)
Hourly Data Report for March 6, 2020
TIME
LST
Temp Definition
°C
Dew Point Definition
°C
Rel Hum Definition
%
Precip. Amount Definition
mm

Wind Dir Definition
10's deg

Wind Spd Definition
km/h
Visibility Definition
km
Stn Press Definition
kPa
Hmdx Definition


Wind Chill Definition


Weather Definition


00:00 -3.5 -10.1 60 LegendMM 27 14   101.03   -9 LegendNANA
01:00 -4.2 -10.9 59 LegendMM 28 14   101.11   -9 LegendNANA
02:00 -5.0 -11.2 62 LegendMM 29 11   101.17   -10 LegendNANA
03:00 -5.3 -11.6 61 LegendMM 27 12   101.26   -10 LegendNANA
04:00 -6.5 -11.8 66 LegendMM 28 11   101.32   -11 LegendNANA
05:00 -7.1 -12.5 65 LegendMM 30 8   101.38   -11 LegendNANA
06:00 -7.5 -12.9 65 LegendMM 29 10   101.42   -12 LegendNANA
07:00 -8.1 -13.3 66 LegendMM 29 10   101.45   -13 LegendNANA
08:00 -7.1 -13.8 59 LegendMM 30 10   101.53   -12 LegendNANA
09:00 -5.9 -14.0 53 LegendMM 32 12   101.60   -11 LegendNANA
10:00 -4.3 -13.6 48 LegendMM 33 9   101.65   -8 LegendNANA
11:00 -2.9 -13.5 44 LegendMM 34 9   101.63   -6 LegendNANA
12:00 -1.8 -14.4 38 LegendMM 34 12   101.61   -6 LegendNANA
13:00 -1.4 -14.1 37 LegendMM 34 9   101.61   -5 LegendNANA
14:00 0.2 -12.9 37 LegendMM 34 8   101.58     LegendNANA
15:00 0.1 -12.4 38 LegendMM 32 11   101.58     LegendNANA
16:00 -0.3 -12.0 41 LegendMM 33 12   101.58   -4 LegendNANA
17:00 -0.8 -12.3 41 LegendMM 35 10   101.59   -4 LegendNANA
18:00 -2.0 -12.7 44 LegendMM 34 7   101.65   -5 LegendNANA
19:00 -3.6 -12.6 50 LegendMM 34 4   101.68   -5 LegendNANA
20:00 -4.7 -12.9 53 LegendMM 34 5   101.71   -7 LegendNANA
21:00 -5.4 -13.0 55 LegendMM 35 9   101.78   -9 LegendNANA
22:00 -6.5 -13.1 60 LegendMM 35 6   101.85   -9 LegendNANA
23:00 -7.6 -13.2 64 LegendMM 36 9   101.69   -12 LegendNANA

Notes on Data Quality.

Legend

  • E = Estimated
  • M = Missing
  • NA = Not Available*
  • [empty] = Indicates an unobserved value
Date modified: